This demonstration page uses our WeatherBlox Daily Observations layout. Learn more.

Hourly Observations for August 3, 2019

Temp ( °F °C ) Dew Point ( °F °C ) Humidity (%) Winds ( mph kmh ) Pressure ( in mb ) Visibility ( mi km ) Precip ( " mm )
12:15 am 00:15 Cloudy 70 21 69 20.8 99 99 E 3 6 30.03 1017 10 16.09344 0 0
12:35 am 00:35 Cloudy 70 21 70 21 100 100 E 3 6 30.03 1017 10 16.09344 0 0
12:55 am 00:55 Cloudy 70 21 70 20.9 99 99 ESE 5 7 30.03 1017 10 16.09344 0 0
1:15 am 01:15 Cloudy 70 21 70 20.9 99 99 ESE 3 6 30.03 1017 10 16.09344 0 0
1:35 am 01:35 Cloudy 70 21 69 20.8 99 99 Calm 30 1016 10 16.09344 0 0
1:55 am 01:55 Cloudy 69 20.8 69 20.5 98 98 Calm 30 1016 10 16.09344 0 0
2:15 am 02:15 Cloudy 69 20.8 69 20.7 99 99 Calm 30.03 1017 10 16.09344 0 0
2:35 am 02:35 Cloudy 69 20.8 69 20.8 100 100 Calm 30 1016 10 16.09344 0 0
2:55 am 02:55 Cloudy 69 20.8 69 20.8 100 100 Calm 30 1016 10 16.09344 0 0
3:15 am 03:15 Mostly Cloudy 69 20.7 69 20.7 100 100 S 5 7 30 1016 10 16.09344 0 0
3:35 am 03:35 Cloudy 69 20.5 69 20.4 99 99 Calm 30 1016 10 16.09344 0 0
3:55 am 03:55 Cloudy 69 20.7 69 20.7 100 100 Calm 30 1016 10 16.09344 0 0
4:15 am 04:15 Cloudy 69 20.8 69 20.7 99 99 S 3 6 30 1016 10 16.09344 0 0
4:35 am 04:35 Cloudy 69 20.8 69 20.7 99 99 Calm 30 1016 10 16.09344 0 0
4:55 am 04:55 Cloudy 70 20.9 69 20.6 98 98 S 3 6 30 1016 10 16.09344 0 0
5:15 am 05:15 Cloudy 70 21 69 20.7 98 98 Calm 30 1016 10 16.09344 0 0
5:35 am 05:35 Cloudy 70 21 69 20.8 99 99 S 3 6 30 1016 10 16.09344 0 0
5:55 am 05:55 Cloudy 70 21 70 21 100 100 S 3 6 30 1016 7 11.265408 0 0
6:15 am 06:15 Cloudy 70 21 70 21 100 100 S 3 6 30 1016 7 11.265408 0 0
6:35 am 06:35 Cloudy with Mist and Fog 70 21 70 21 100 100 S 3 6 30 1016 5 8.04672 0 0
6:55 am 06:55 Cloudy with Mist and Fog 70 21 70 21 100 100 S 3 6 30 1016 5 8.04672 0 0
7:15 am 07:15 Cloudy with Mist and Fog 70 21.1 70 21.1 100 100 SSW 3 6 30 1016 5 8.04672 0 0
7:35 am 07:35 Cloudy 71 21.4 70 21.3 99 99 Calm 30 1016 7 11.265408 0 0
7:55 am 07:55 Cloudy 71 21.5 70 21.2 98 98 Calm 30 1016 7 11.265408 0 0
8:15 am 08:15 Cloudy 71 21.7 70 21.2 97 97 Calm 30 1016 7 11.265408 0 0
8:35 am 08:35 Cloudy 72 22 70 21.2 95 95 Calm 30 1016 10 16.09344 0 0
8:55 am 08:55 Cloudy 72 22.3 70 21.2 94 94 Calm 30.03 1017 10 16.09344 0 0
9:15 am 09:15 Cloudy 73 22.6 70 21.2 92 92 Calm 30.03 1017 10 16.09344 0 0
9:35 am 09:35 Cloudy 73 22.6 70 21.2 92 92 Calm 30.03 1017 10 16.09344 0 0
9:55 am 09:55 Cloudy 73 22.7 70 21.1 91 91 Calm 30.03 1017 10 16.09344 0 0
10:15 am 10:15 Cloudy 73 22.8 71 21.4 92 92 NNE 5 7 30.03 1017 10 16.09344 0 0
10:35 am 10:35 Cloudy 73 22.8 71 21.5 92 92 Calm 30.03 1017 10 16.09344 0 0
10:55 am 10:55 Cloudy 74 23.1 71 21.4 90 90 Calm 30.03 1017 10 16.09344 0 0
11:15 am 11:15 Cloudy 74 23.4 70 21.3 88 88 Calm 30.03 1017 10 16.09344 0 0
11:35 am 11:35 Cloudy 76 24.3 71 21.4 84 84 NE 5 7 30.03 1017 10 16.09344 0 0
11:55 am 11:55 Cloudy 76 24.5 71 21.5 83 83 NE 3 6 30 1016 10 16.09344 0 0
12:15 pm 12:15 Cloudy 76 24.5 69 20.8 80 80 NE 3 6 30 1016 10 16.09344 0 0
12:35 pm 12:35 Cloudy 77 25.2 69 20.8 77 77 Calm 30 1016 10 16.09344 0 0
12:55 pm 12:55 Cloudy 79 26.2 70 21 73 73 NE 3 6 30 1016 10 16.09344 0 0
1:15 pm 13:15 Cloudy 79 26 69 20.5 72 72 Calm 30 1016 10 16.09344 0 0
1:35 pm 13:35 Cloudy 79 26 68 20 70 70 N 3 6 29.97 1015 10 16.09344 0 0
1:55 pm 13:55 Partly Cloudy 80 26.8 67 19.6 65 65 Calm 29.97 1015 10 16.09344 0 0
2:15 pm 14:15 Sunny 81 27.1 68 20.2 66 66 Calm 29.97 1015 10 16.09344 0 0
2:35 pm 14:35 Sunny 81 27.1 66 18.9 61 61 NE 3 6 29.97 1015 10 16.09344 0 0
2:55 pm 14:55 Sunny 81 27.1 67 19.3 62 62 Calm 29.97 1015 10 16.09344 0 0
3:15 pm 15:15 Sunny 82 27.7 66 19 59 59 Calm 29.97 1015 10 16.09344 0 0
3:35 pm 15:35 Sunny 82 28 65 18.6 57 57 Calm 29.94 1014 10 16.09344 0 0
3:55 pm 15:55 Sunny 83 28.4 66 18.9 56 56 NNE 5 7 29.94 1014 10 16.09344 0 0
4:15 pm 16:15 Sunny 83 28.4 65 18.6 55 55 Calm 29.91 1013 10 16.09344 0 0
4:35 pm 16:35 Sunny 83 28.2 65 18.4 55 55 Calm 29.91 1013 10 16.09344 0 0
4:55 pm 16:55 Sunny 83 28.5 66 18.9 56 56 Calm 29.91 1013 10 16.09344 0 0
5:15 pm 17:15 Sunny 84 28.7 67 19.2 56 56 Calm 29.91 1013 10 16.09344 0 0
5:35 pm 17:35 Sunny 83 28.5 66 18.7 55 55 Calm 29.91 1013 10 16.09344 0 0
5:55 pm 17:55 Sunny 83 28.3 65 18.3 55 55 Calm 29.91 1013 10 16.09344 0 0
6:15 pm 18:15 Sunny 83 28.1 66 18.8 57 57 Calm 29.91 1013 10 16.09344 0 0
6:35 pm 18:35 Sunny 83 28.1 65 18.6 56 56 Calm 29.88 1012 10 16.09344 0 0
6:55 pm 18:55 Sunny 82 28 66 18.7 57 57 Calm 29.88 1012 10 16.09344 0 0
7:15 pm 19:15 Sunny 82 27.8 66 18.9 58 58 Calm 29.88 1012 10 16.09344 0 0
7:35 pm 19:35 Sunny 81 27.3 68 19.9 64 64 Calm 29.88 1012 10 16.09344 0 0
7:55 pm 19:55 Sunny 80 26.4 69 20.8 71 71 Calm 29.91 1013 10 16.09344 0 0
8:15 pm 20:15 Sunny 79 25.9 70 20.9 74 74 Calm 29.91 1013 10 16.09344 0 0
8:35 pm 20:35 Sunny 76 24.5 70 21.2 82 82 ESE 3 6 29.91 1013 10 16.09344 0 0
8:55 pm 20:55 Clear 75 24 70 21.3 85 85 ESE 5 7 29.94 1014 10 16.09344 0 0
9:15 pm 21:15 Clear 73 22.8 70 21.1 90 90 SE 5 7 29.97 1015 10 16.09344 0 0
9:35 pm 21:35 Clear 73 22.6 69 20.6 89 89 SE 6 9 29.97 1015 10 16.09344 0 0
9:55 pm 21:55 Clear 72 22 69 20.3 90 90 Calm 29.97 1015 10 16.09344 0 0
10:15 pm 22:15 Clear 71 21.5 69 20.3 93 93 SE 7 11 29.97 1015 10 16.09344 0 0
10:35 pm 22:35 Clear 71 21.7 69 20.4 92 92 SE 5 7 30 1016 10 16.09344 0 0
10:55 pm 22:55 Clear 70 21.1 69 20.4 96 96 SSE 5 7 30 1016 10 16.09344 0 0
11:15 pm 23:15 Clear 70 21.1 69 20.6 97 97 SSE 5 7 30 1016 10 16.09344 0 0
11:35 pm 23:35 Clear 70 21 69 20.7 98 98 SSE 3 6 30 1016 10 16.09344 0 0
11:55 pm 23:55 Clear 70 21 69 20.8 99 99 SSE 5 7 30 1016 10 16.09344 0 0

Powered by AerisWeather